Time,TemperatureF,DewpointF,PressureIn,WindDirection,WindDirectionDegrees,WindSpeedMPH,WindSpeedGustMPH,Humidity,HourlyPrecipIn,Conditions,Clouds,dailyrainin,SoftwareType,DateUTC
2013-01-16 00:03:00,29.0,29.0,30.01,SE,138,2.0,6.0,98,0.01,,,0.01,,2013-01-16 05:03:00,
2013-01-16 00:12:00,29.0,29.0,30.01,SE,138,2.0,6.0,98,0.01,,,0.01,,2013-01-16 05:12:00,
2013-01-16 00:23:00,29.0,29.0,30.00,SE,130,8.0,9.0,98,0.01,,,0.01,,2013-01-16 05:23:00,
2013-01-16 00:32:00,29.0,29.0,30.00,ESE,115,4.0,10.0,99,0.01,,,0.01,,2013-01-16 05:32:00,
2013-01-16 00:42:00,29.0,29.0,30.00,ESE,115,4.0,10.0,99,0.01,,,0.01,,2013-01-16 05:42:00,
2013-01-16 00:53:00,29.0,29.0,30.00,SE,125,3.0,7.0,99,0.01,,,0.01,,2013-01-16 05:53:00,
2013-01-16 01:03:00,29.0,29.0,29.98,ESE,123,4.0,9.0,99,0.00,,,0.01,,2013-01-16 06:03:00,
2013-01-16 01:12:00,29.0,29.0,29.98,ESE,123,4.0,9.0,99,0.00,,,0.01,,2013-01-16 06:12:00,
2013-01-16 01:22:00,29.0,29.0,29.98,ENE,76,4.0,11.0,99,0.00,,,0.01,,2013-01-16 06:22:00,
2013-01-16 01:33:00,29.0,29.0,29.97,ESE,111,6.0,6.0,99,0.00,,,0.01,,2013-01-16 06:33:00,
2013-01-16 01:43:00,29.0,29.0,29.97,ESE,111,6.0,6.0,99,0.00,,,0.01,,2013-01-16 06:43:00,
2013-01-16 01:52:00,29.0,29.0,29.97,ESE,111,4.0,6.0,99,0.00,,,0.01,,2013-01-16 06:52:00,
2013-01-16 02:02:00,29.0,29.0,29.96,East,91,5.0,8.0,99,0.00,,,0.01,,2013-01-16 07:02:00,
2013-01-16 02:12:00,29.0,29.0,29.96,East,91,5.0,8.0,99,0.00,,,0.01,,2013-01-16 07:12:00,
2013-01-16 02:22:00,29.0,29.0,29.96,ENE,78,2.0,5.0,99,0.00,,,0.01,,2013-01-16 07:22:00,
2013-01-16 02:33:00,29.0,29.0,29.97,SE,141,3.0,5.0,99,0.00,,,0.01,,2013-01-16 07:33:00,
2013-01-16 02:42:00,29.0,29.0,29.97,SE,141,3.0,5.0,99,0.00,,,0.01,,2013-01-16 07:42:00,
2013-01-16 02:52:00,29.0,29.0,29.97,SE,139,3.0,6.0,99,0.00,,,0.01,,2013-01-16 07:52:00,
2013-01-16 03:03:00,29.0,29.0,29.95,ESE,123,3.0,7.0,99,0.00,,,0.01,,2013-01-16 08:03:00,
2013-01-16 03:12:00,29.0,29.0,29.95,ESE,123,3.0,7.0,99,0.00,,,0.01,,2013-01-16 08:12:00,
2013-01-16 03:22:00,29.0,29.0,29.94,ESE,109,4.0,6.0,99,0.00,,,0.01,,2013-01-16 08:22:00,
2013-01-16 03:32:00,29.0,29.0,29.93,SE,126,3.0,9.0,99,0.00,,,0.01,,2013-01-16 08:32:00,
2013-01-16 03:42:00,29.0,29.0,29.93,SE,126,3.0,9.0,99,0.00,,,0.01,,2013-01-16 08:42:00,
2013-01-16 03:52:00,29.0,29.0,29.93,ESE,109,5.0,5.0,99,0.00,,,0.01,,2013-01-16 08:52:00,
2013-01-16 04:02:00,29.0,29.0,29.92,East,80,2.0,7.0,99,0.00,,,0.01,,2013-01-16 09:02:00,
2013-01-16 04:12:00,29.0,29.0,29.92,East,80,2.0,7.0,99,0.00,,,0.01,,2013-01-16 09:12:00,
2013-01-16 04:22:00,29.0,29.0,29.93,East,92,1.0,5.0,99,0.00,,,0.01,,2013-01-16 09:22:00,
2013-01-16 04:32:00,29.0,29.0,29.92,SE,128,4.0,4.0,99,0.00,,,0.01,,2013-01-16 09:32:00,
2013-01-16 04:42:00,29.0,29.0,29.92,SE,128,4.0,4.0,99,0.00,,,0.01,,2013-01-16 09:42:00,
2013-01-16 04:52:00,29.0,29.0,29.92,SE,127,3.0,4.0,99,0.00,,,0.01,,2013-01-16 09:52:00,
2013-01-16 05:03:00,29.0,29.0,29.92,SE,131,3.0,5.0,99,0.00,,,0.01,,2013-01-16 10:03:00,
2013-01-16 05:12:00,29.0,29.0,29.92,SE,131,3.0,5.0,99,0.00,,,0.01,,2013-01-16 10:12:00,
2013-01-16 05:22:00,29.0,29.0,29.92,East,101,0.0,4.0,99,0.00,,,0.01,,2013-01-16 10:22:00,
2013-01-16 05:32:00,29.0,29.0,29.90,SE,130,2.0,7.0,99,0.00,,,0.01,,2013-01-16 10:32:00,
2013-01-16 05:42:00,29.0,29.0,29.90,SE,130,2.0,7.0,99,0.00,,,0.01,,2013-01-16 10:42:00,
2013-01-16 05:52:00,29.0,29.0,29.88,SE,134,3.0,9.0,99,0.00,,,0.01,,2013-01-16 10:52:00,
2013-01-16 06:02:00,29.0,29.0,29.89,ESE,123,2.0,6.0,99,0.00,,,0.01,,2013-01-16 11:02:00,
2013-01-16 06:12:00,29.0,29.0,29.89,ESE,123,2.0,6.0,99,0.00,,,0.01,,2013-01-16 11:12:00,
2013-01-16 06:23:00,29.0,29.0,29.88,ESE,117,2.0,5.0,99,0.00,,,0.01,,2013-01-16 11:23:00,
2013-01-16 06:33:00,29.0,29.0,29.87,East,98,2.0,6.0,99,0.00,,,0.01,,2013-01-16 11:33:00,
2013-01-16 06:43:00,29.0,29.0,29.87,East,98,2.0,6.0,99,0.00,,,0.01,,2013-01-16 11:43:00,
2013-01-16 06:52:00,29.0,29.0,29.86,SE,126,6.0,7.0,99,0.00,,,0.01,,2013-01-16 11:52:00,
2013-01-16 07:03:00,29.0,29.0,29.85,East,79,0.0,8.0,99,0.00,,,0.01,,2013-01-16 12:03:00,
2013-01-16 07:13:00,29.0,29.0,29.85,East,79,0.0,8.0,99,0.00,,,0.01,,2013-01-16 12:13:00,
2013-01-16 07:22:00,29.0,29.0,29.84,ESE,113,2.0,3.0,99,0.00,,,0.01,,2013-01-16 12:22:00,
2013-01-16 07:33:00,29.0,29.0,29.85,East,96,0.0,2.0,99,0.00,,,0.01,,2013-01-16 12:33:00,
2013-01-16 07:43:00,29.0,29.0,29.85,East,96,0.0,2.0,99,0.00,,,0.01,,2013-01-16 12:43:00,
2013-01-16 07:53:00,29.0,29.0,29.87,NNW,331,2.0,3.0,99,0.00,,,0.01,,2013-01-16 12:53:00,
2013-01-16 08:03:00,29.0,29.0,29.85,East,80,2.0,4.0,100,0.00,,,0.01,,2013-01-16 13:03:00,
2013-01-16 08:12:00,29.0,29.0,29.85,East,80,2.0,4.0,100,0.00,,,0.01,,2013-01-16 13:12:00,
2013-01-16 08:23:00,29.0,29.0,29.86,East,80,0.0,3.0,100,0.00,,,0.01,,2013-01-16 13:23:00,
2013-01-16 08:33:00,30.0,30.0,29.86,East,92,5.0,6.0,100,0.00,,,0.01,,2013-01-16 13:33:00,
2013-01-16 08:43:00,30.0,30.0,29.86,East,92,5.0,6.0,100,0.00,,,0.01,,2013-01-16 13:43:00,
2013-01-16 08:52:00,30.0,30.0,29.86,East,92,5.0,6.0,100,0.00,,,0.01,,2013-01-16 13:52:00,
2013-01-16 09:03:00,30.0,30.0,29.86,East,95,0.0,7.0,100,0.00,,,0.01,,2013-01-16 14:03:00,
2013-01-16 09:12:00,30.0,30.0,29.86,East,95,0.0,7.0,100,0.00,,,0.01,,2013-01-16 14:12:00,
2013-01-16 09:23:00,29.0,29.0,29.90,SE,142,0.0,9.0,100,0.00,,,0.01,,2013-01-16 14:23:00,
2013-01-16 09:33:00,30.0,30.0,29.88,NNW,334,0.0,3.0,100,0.00,,,0.01,,2013-01-16 14:33:00,
2013-01-16 09:43:00,30.0,30.0,29.88,NNW,334,0.0,3.0,100,0.00,,,0.01,,2013-01-16 14:43:00,
2013-01-16 09:53:00,30.0,30.0,29.88,NNW,334,0.0,3.0,100,0.00,,,0.01,,2013-01-16 14:53:00,
2013-01-16 10:03:00,30.0,30.0,29.86,ENE,77,0.0,2.0,100,0.00,,,0.01,,2013-01-16 15:03:00,
2013-01-16 10:12:00,30.0,30.0,29.86,ENE,77,0.0,2.0,100,0.00,,,0.01,,2013-01-16 15:12:00,
2013-01-16 10:23:00,31.0,31.0,29.85,North,355,0.0,3.0,100,0.00,,,0.01,,2013-01-16 15:23:00,
2013-01-16 10:33:00,31.0,31.0,29.85,North,355,0.0,3.0,100,0.00,,,0.01,,2013-01-16 15:33:00,
2013-01-16 10:43:00,31.0,31.0,29.85,North,355,0.0,3.0,100,0.00,,,0.01,,2013-01-16 15:43:00,
2013-01-16 10:52:00,31.0,31.0,29.83,East,101,5.0,6.0,100,0.00,,,0.01,,2013-01-16 15:52:00,
2013-01-16 11:04:00,31.0,31.0,29.83,East,101,5.0,6.0,100,0.00,,,0.01,,2013-01-16 16:04:00,
2013-01-16 11:12:00,31.0,31.0,29.83,East,101,5.0,6.0,100,0.00,,,0.01,,2013-01-16 16:12:00,
2013-01-16 11:23:00,32.0,32.0,29.84,NW,324,4.0,4.0,100,0.00,,,0.01,,2013-01-16 16:23:00,
2013-01-16 11:33:00,34.0,34.0,29.80,NW,307,11.0,16.0,100,0.00,,,0.01,,2013-01-16 16:33:00,
2013-01-16 11:43:00,34.0,34.0,29.80,NW,307,11.0,16.0,100,0.00,,,0.01,,2013-01-16 16:43:00,
2013-01-16 11:52:00,34.0,34.0,29.80,NW,307,11.0,16.0,100,0.00,,,0.01,,2013-01-16 16:52:00,
2013-01-16 12:03:00,33.0,33.0,29.83,NNW,331,4.0,15.0,100,0.00,,,0.01,,2013-01-16 17:03:00,
2013-01-16 12:12:00,33.0,33.0,29.83,NNW,331,4.0,15.0,100,0.00,,,0.01,,2013-01-16 17:12:00,
2013-01-16 12:23:00,33.0,33.0,29.82,NNW,332,12.0,15.0,100,0.00,,,0.01,,2013-01-16 17:23:00,
2013-01-16 12:33:00,32.0,32.0,29.81,NW,312,9.0,17.0,100,0.00,,,0.01,,2013-01-16 17:33:00,
2013-01-16 12:44:00,32.0,32.0,29.81,NW,312,9.0,17.0,100,0.00,,,0.01,,2013-01-16 17:44:00,
2013-01-16 12:53:00,32.0,32.0,29.81,NW,312,9.0,17.0,100,0.00,,,0.01,,2013-01-16 17:53:00,
2013-01-16 13:03:00,31.0,31.0,29.81,NW,308,11.0,20.0,100,0.00,,,0.01,,2013-01-16 18:03:00,
2013-01-16 13:13:00,31.0,31.0,29.81,NW,308,11.0,20.0,100,0.00,,,0.01,,2013-01-16 18:13:00,
2013-01-16 13:23:00,31.0,31.0,29.81,NNW,337,11.0,19.0,100,0.00,,,0.01,,2013-01-16 18:23:00,
2013-01-16 13:33:00,31.0,31.0,29.82,West,263,9.0,17.0,100,0.00,,,0.01,,2013-01-16 18:33:00,
2013-01-16 13:43:00,31.0,31.0,29.82,West,263,9.0,17.0,100,0.00,,,0.01,,2013-01-16 18:43:00,
2013-01-16 13:53:00,31.0,31.0,29.82,West,269,12.0,15.0,100,0.00,,,0.01,,2013-01-16 18:53:00,
2013-01-16 14:03:00,31.0,31.0,29.82,West,269,12.0,15.0,100,0.00,,,0.01,,2013-01-16 19:03:00,
2013-01-16 14:13:00,31.0,31.0,29.82,West,269,12.0,15.0,100,0.00,,,0.01,,2013-01-16 19:13:00,
2013-01-16 14:23:00,31.0,31.0,29.84,West,280,3.0,15.0,100,0.00,,,0.01,,2013-01-16 19:23:00,
2013-01-16 14:33:00,31.0,31.0,29.83,West,279,1.0,13.0,100,0.00,,,0.01,,2013-01-16 19:33:00,
2013-01-16 14:43:00,31.0,31.0,29.83,West,279,1.0,13.0,100,0.00,,,0.01,,2013-01-16 19:43:00,
2013-01-16 14:52:00,30.0,30.0,29.83,North,360,7.0,11.0,100,0.00,,,0.01,,2013-01-16 19:52:00,
2013-01-16 15:03:00,31.0,31.0,29.83,West,265,4.0,10.0,100,0.00,,,0.01,,2013-01-16 20:03:00,
2013-01-16 15:12:00,31.0,31.0,29.83,West,265,4.0,10.0,100,0.00,,,0.01,,2013-01-16 20:12:00,
2013-01-16 15:23:00,31.0,31.0,29.83,North,350,5.0,10.0,100,0.00,,,0.01,,2013-01-16 20:23:00,
2013-01-16 15:33:00,31.0,31.0,29.83,NW,314,9.0,13.0,100,0.00,,,0.01,,2013-01-16 20:33:00,
2013-01-16 15:43:00,31.0,31.0,29.83,NW,314,9.0,13.0,100,0.00,,,0.01,,2013-01-16 20:43:00,
2013-01-16 15:53:00,31.0,31.0,29.84,North,351,4.0,12.0,100,0.00,,,0.01,,2013-01-16 20:53:00,
2013-01-16 16:03:00,31.0,31.0,29.84,WNW,298,3.0,16.0,100,0.00,,,0.01,,2013-01-16 21:03:00,
2013-01-16 16:12:00,31.0,31.0,29.84,WNW,298,3.0,16.0,100,0.00,,,0.01,,2013-01-16 21:12:00,
2013-01-16 16:23:00,31.0,31.0,29.85,NW,317,2.0,8.0,100,0.00,,,0.01,,2013-01-16 21:23:00,
2013-01-16 16:33:00,31.0,31.0,29.86,WNW,284,4.0,12.0,100,0.00,,,0.01,,2013-01-16 21:33:00,
2013-01-16 16:43:00,31.0,31.0,29.86,WNW,284,4.0,12.0,100,0.00,,,0.01,,2013-01-16 21:43:00,
2013-01-16 16:52:00,31.0,31.0,29.86,WSW,255,5.0,12.0,100,0.00,,,0.01,,2013-01-16 21:52:00,
2013-01-16 17:03:00,31.0,31.0,29.86,NW,310,6.0,12.0,100,0.00,,,0.01,,2013-01-16 22:03:00,
2013-01-16 17:12:00,31.0,31.0,29.86,NW,310,6.0,12.0,100,0.00,,,0.01,,2013-01-16 22:12:00,
2013-01-16 17:23:00,31.0,31.0,29.86,NW,310,6.0,12.0,100,0.00,,,0.01,,2013-01-16 22:23:00,
2013-01-16 17:33:00,31.0,31.0,29.86,NW,310,6.0,12.0,100,0.00,,,0.01,,2013-01-16 22:33:00,
2013-01-16 17:43:00,31.0,31.0,29.86,NW,310,6.0,12.0,100,0.00,,,0.01,,2013-01-16 22:43:00,